contact:dominique.lefevre@mio.osupytheas.fr, maurice.libes@osupytheas.fr, didier.mallarino@osupytheas.fr
Project:EMSO http://www.emso-fr.org/EMSO-France
Depth: 2436.0 m
Title:EMSO Ligure Ouest : Data MII capteur MICROCAT
DateTime_Computer,Latitude,Longitude,Temperature,Conductivity,Pressure,DateTime_Instrument
DateTime_Computer,Latitude,Longitude,degC,S m-1,dbar,DateTime_Instrument
2020-07-27T00:02:32Z,42.805,6.029,13.2984,4.60000,2470.227,2020-7-27T02:03:19Z
2020-07-27T00:05:35Z,42.805,6.029,13.2986,4.60028,2470.227,2020-7-27T02:06:22Z
2020-07-27T00:08:38Z,42.805,6.029,13.2993,4.60009,2470.24,2020-7-27T02:09:26Z
2020-07-27T00:11:41Z,42.805,6.029,13.3000,4.59993,2470.217,2020-7-27T02:12:29Z
2020-07-27T00:14:44Z,42.805,6.029,13.2984,4.60031,2470.25,2020-7-27T02:15:32Z
2020-07-27T00:17:48Z,42.805,6.029,13.2984,4.60006,2470.227,2020-7-27T02:18:35Z
2020-07-27T00:20:51Z,42.805,6.029,13.2984,4.60001,2470.24,2020-7-27T02:21:38Z
2020-07-27T00:23:54Z,42.805,6.029,13.2989,4.60031,2470.24,2020-7-27T02:24:42Z
2020-07-27T00:26:57Z,42.805,6.029,13.2990,4.60014,2470.24,2020-7-27T02:27:45Z
2020-07-27T00:30:01Z,42.805,6.029,13.2991,4.60016,2470.203,2020-7-27T02:30:48Z
2020-07-27T00:33:04Z,42.805,6.029,13.2993,4.60014,2470.273,2020-7-27T02:33:51Z
2020-07-27T00:36:07Z,42.805,6.029,13.2990,4.60005,2470.217,2020-7-27T02:36:55Z
2020-07-27T00:39:10Z,42.805,6.029,13.2993,4.60015,2470.18,2020-7-27T02:39:58Z
2020-07-27T00:42:14Z,42.805,6.029,13.2988,4.60004,2470.18,2020-7-27T02:43:01Z
2020-07-27T00:45:17Z,42.805,6.029,13.2993,4.60011,2470.227,2020-7-27T02:46:04Z
2020-07-27T00:48:20Z,42.805,6.029,13.2999,4.60038,2470.25,2020-7-27T02:49:08Z
2020-07-27T00:51:23Z,42.805,6.029,13.2979,4.60016,2470.18,2020-7-27T02:52:11Z
2020-07-27T00:54:27Z,42.805,6.029,13.2986,4.60005,2470.203,2020-7-27T02:55:14Z
2020-07-27T00:57:30Z,42.805,6.029,13.2990,4.60004,2470.203,2020-7-27T02:58:17Z
2020-07-27T01:00:33Z,42.805,6.029,13.2994,4.60012,2470.217,2020-7-27T03:01:21Z
2020-07-27T01:03:36Z,42.805,6.029,13.2988,4.60011,2470.217,2020-7-27T03:04:24Z
2020-07-27T01:06:39Z,42.805,6.029,13.2986,4.60001,2470.227,2020-7-27T03:07:27Z
2020-07-27T01:09:43Z,42.805,6.029,13.2996,4.60002,2470.24,2020-7-27T03:10:30Z
2020-07-27T01:12:46Z,42.805,6.029,13.2990,4.60000,2470.18,2020-7-27T03:13:34Z
2020-07-27T01:15:49Z,42.805,6.029,13.2985,4.60020,2470.24,2020-7-27T03:16:37Z
2020-07-27T01:18:53Z,42.805,6.029,13.2987,4.60006,2470.24,2020-7-27T03:19:40Z
2020-07-27T01:21:56Z,42.805,6.029,13.2988,4.60011,2470.203,2020-7-27T03:22:43Z
2020-07-27T01:24:59Z,42.805,6.029,13.2998,4.60010,2470.203,2020-7-27T03:25:47Z
2020-07-27T01:28:02Z,42.805,6.029,13.2981,4.60010,2470.171,2020-7-27T03:28:50Z
2020-07-27T01:31:05Z,42.805,6.029,13.2992,4.60018,2470.217,2020-7-27T03:31:53Z
2020-07-27T01:34:09Z,42.805,6.029,13.2985,4.60007,2470.24,2020-7-27T03:34:57Z
2020-07-27T01:37:12Z,42.805,6.029,13.2985,4.60001,2470.203,2020-7-27T03:38:00Z
2020-07-27T01:40:16Z,42.805,6.029,13.2987,4.60008,2470.217,2020-7-27T03:41:03Z
2020-07-27T01:43:19Z,42.805,6.029,13.2984,4.59999,2470.194,2020-7-27T03:44:06Z
2020-07-27T01:46:22Z,42.805,6.029,13.2986,4.60014,2470.217,2020-7-27T03:47:10Z
2020-07-27T01:49:25Z,42.805,6.029,13.2992,4.60026,2470.18,2020-7-27T03:50:13Z
2020-07-27T01:52:29Z,42.805,6.029,13.2994,4.60029,2470.194,2020-7-27T03:53:16Z
2020-07-27T01:55:32Z,42.805,6.029,13.2989,4.60017,2470.203,2020-7-27T03:56:19Z
2020-07-27T01:58:35Z,42.805,6.029,13.2986,4.60002,2470.171,2020-7-27T03:59:23Z
2020-07-27T02:01:38Z,42.805,6.029,13.2993,4.60009,2470.203,2020-7-27T04:02:26Z
2020-07-27T02:04:42Z,42.805,6.029,13.2986,4.60018,2470.203,2020-7-27T04:05:29Z
2020-07-27T02:07:45Z,42.805,6.029,13.2983,4.60003,2470.217,2020-7-27T04:08:33Z
2020-07-27T02:10:48Z,42.805,6.029,13.2989,4.60011,2470.217,2020-7-27T04:11:36Z
2020-07-27T02:13:51Z,42.805,6.029,13.2990,4.60021,2470.18,2020-7-27T04:14:39Z
2020-07-27T02:16:54Z,42.805,6.029,13.2990,4.60014,2470.194,2020-7-27T04:17:42Z
2020-07-27T02:19:58Z,42.805,6.029,13.2999,4.60029,2470.156,2020-7-27T04:20:45Z
2020-07-27T02:23:01Z,42.805,6.029,13.2992,4.59996,2470.156,2020-7-27T04:23:49Z
2020-07-27T02:26:04Z,42.805,6.029,13.2991,4.60021,2470.171,2020-7-27T04:26:52Z
2020-07-27T02:29:08Z,42.805,6.029,13.2997,4.60029,2470.194,2020-7-27T04:29:55Z
2020-07-27T02:32:11Z,42.805,6.029,13.2996,4.60011,2470.18,2020-7-27T04:32:59Z
2020-07-27T02:35:14Z,42.805,6.029,13.2993,4.60014,2470.156,2020-7-27T04:36:02Z
2020-07-27T02:38:17Z,42.805,6.029,13.2991,4.60021,2470.156,2020-7-27T04:39:05Z
2020-07-27T02:41:21Z,42.805,6.029,13.2986,4.60049,2470.171,2020-7-27T04:42:08Z
2020-07-27T02:44:24Z,42.805,6.029,13.2985,4.60034,2470.133,2020-7-27T04:45:11Z
2020-07-27T02:47:27Z,42.805,6.029,13.2986,4.60033,2470.171,2020-7-27T04:48:15Z
2020-07-27T02:50:30Z,42.805,6.029,13.2987,4.60015,2470.171,2020-7-27T04:51:18Z
2020-07-27T02:53:34Z,42.805,6.029,13.2990,4.60023,2470.147,2020-7-27T04:54:21Z
2020-07-27T02:56:37Z,42.805,6.029,13.2987,4.60009,2470.133,2020-7-27T04:57:25Z
2020-07-27T02:59:40Z,42.805,6.029,13.2987,4.60019,2470.156,2020-7-27T05:00:28Z
2020-07-27T03:02:44Z,42.805,6.029,13.2994,4.60020,2470.156,2020-7-27T05:03:31Z
2020-07-27T03:05:47Z,42.805,6.029,13.3000,4.60031,2470.171,2020-7-27T05:06:35Z
2020-07-27T03:08:50Z,42.805,6.029,13.3002,4.60036,2470.156,2020-7-27T05:09:38Z
2020-07-27T03:11:53Z,42.805,6.029,13.2994,4.60041,2470.133,2020-7-27T05:12:41Z
2020-07-27T03:14:57Z,42.805,6.029,13.2991,4.60031,2470.171,2020-7-27T05:15:44Z
2020-07-27T03:18:00Z,42.805,6.029,13.2998,4.60044,2470.171,2020-7-27T05:18:47Z
2020-07-27T03:21:03Z,42.805,6.029,13.2998,4.60019,2470.11,2020-7-27T05:21:51Z
2020-07-27T03:24:06Z,42.805,6.029,13.2992,4.60029,2470.119,2020-7-27T05:24:54Z
2020-07-27T03:27:09Z,42.805,6.029,13.2998,4.60037,2470.11,2020-7-27T05:27:57Z
2020-07-27T03:30:13Z,42.805,6.029,13.2993,4.60033,2470.156,2020-7-27T05:31:00Z
2020-07-27T03:33:16Z,42.805,6.029,13.2992,4.60046,2470.11,2020-7-27T05:34:04Z
2020-07-27T03:36:19Z,42.805,6.029,13.3004,4.60043,2470.124,2020-7-27T05:37:07Z
2020-07-27T03:39:23Z,42.805,6.029,13.2994,4.60036,2470.133,2020-7-27T05:40:10Z
2020-07-27T03:42:26Z,42.805,6.029,13.2995,4.60021,2470.133,2020-7-27T05:43:13Z
2020-07-27T03:45:29Z,42.805,6.029,13.2993,4.60023,2470.11,2020-7-27T05:46:17Z
2020-07-27T03:48:32Z,42.805,6.029,13.2988,4.60032,2470.1,2020-7-27T05:49:20Z
2020-07-27T03:51:36Z,42.805,6.029,13.2984,4.60030,2470.147,2020-7-27T05:52:23Z
2020-07-27T03:54:39Z,42.805,6.029,13.3016,4.60038,2470.124,2020-7-27T05:55:26Z
2020-07-27T03:57:42Z,42.805,6.029,13.2989,4.60039,2470.11,2020-7-27T05:58:30Z
2020-07-27T04:00:45Z,42.805,6.029,13.2996,4.60019,2470.1,2020-7-27T06:01:33Z
2020-07-27T04:03:49Z,42.805,6.029,13.2993,4.60044,2470.124,2020-7-27T06:04:37Z
2020-07-27T04:06:52Z,42.805,6.029,13.2990,4.60039,2470.147,2020-7-27T06:07:40Z
2020-07-27T04:09:55Z,42.805,6.029,13.2998,4.60026,2470.124,2020-7-27T06:10:43Z
2020-07-27T04:12:59Z,42.805,6.029,13.3006,4.60049,2470.147,2020-7-27T06:13:46Z
2020-07-27T04:16:02Z,42.805,6.029,13.3015,4.60029,2470.124,2020-7-27T06:16:49Z
2020-07-27T04:19:05Z,42.805,6.029,13.2993,4.60041,2470.124,2020-7-27T06:19:53Z
2020-07-27T04:22:08Z,42.805,6.029,13.3004,4.60036,2470.11,2020-7-27T06:22:56Z
2020-07-27T04:25:11Z,42.805,6.029,13.2991,4.60039,2470.124,2020-7-27T06:25:59Z
2020-07-27T04:28:15Z,42.805,6.029,13.3000,4.60037,2470.11,2020-7-27T06:29:02Z
2020-07-27T04:31:18Z,42.805,6.029,13.2984,4.60029,2470.11,2020-7-27T06:32:06Z
2020-07-27T04:34:21Z,42.805,6.029,13.2987,4.60029,2470.124,2020-7-27T06:35:09Z
2020-07-27T04:37:25Z,42.805,6.029,13.2990,4.60019,2470.1,2020-7-27T06:38:12Z
2020-07-27T04:40:28Z,42.805,6.029,13.2998,4.60029,2470.1,2020-7-27T06:41:15Z
2020-07-27T04:43:31Z,42.805,6.029,13.2988,4.60021,2470.1,2020-7-27T06:44:19Z
2020-07-27T04:46:34Z,42.805,6.029,13.2991,4.60037,2470.1,2020-7-27T06:47:22Z
2020-07-27T04:49:38Z,42.805,6.029,13.2991,4.60021,2470.124,2020-7-27T06:50:25Z
2020-07-27T04:52:41Z,42.805,6.029,13.2987,4.60050,2470.077,2020-7-27T06:53:28Z
2020-07-27T04:55:44Z,42.805,6.029,13.2991,4.60036,2470.087,2020-7-27T06:56:32Z
2020-07-27T04:58:47Z,42.805,6.029,13.2993,4.60035,2470.11,2020-7-27T06:59:35Z
2020-07-27T05:01:51Z,42.805,6.029,13.2999,4.60026,2470.087,2020-7-27T07:02:38Z
2020-07-27T05:04:54Z,42.805,6.029,13.2999,4.60072,2470.087,2020-7-27T07:05:41Z
2020-07-27T05:07:57Z,42.805,6.029,13.2990,4.60035,2470.11,2020-7-27T07:08:45Z
2020-07-27T05:11:00Z,42.805,6.029,13.2989,4.60041,2470.138,2020-7-27T07:11:48Z
2020-07-27T05:14:04Z,42.805,6.029,13.3006,4.60037,2470.124,2020-7-27T07:14:51Z
2020-07-27T05:17:07Z,42.805,6.029,13.2996,4.60034,2470.1,2020-7-27T07:17:54Z
2020-07-27T05:20:10Z,42.805,6.029,13.2987,4.60055,2470.063,2020-7-27T07:20:58Z
2020-07-27T05:23:13Z,42.805,6.029,13.2991,4.60022,2470.04,2020-7-27T07:24:01Z
2020-07-27T05:26:16Z,42.805,6.029,13.3022,4.60044,2470.063,2020-7-27T07:27:04Z
2020-07-27T05:29:20Z,42.805,6.029,13.2994,4.60044,2470.087,2020-7-27T07:30:07Z
2020-07-27T05:32:23Z,42.805,6.029,13.2988,4.60042,2470.087,2020-7-27T07:33:11Z
2020-07-27T05:35:26Z,42.805,6.029,13.2993,4.60025,2470.077,2020-7-27T07:36:14Z
2020-07-27T05:38:29Z,42.805,6.029,13.2999,4.60041,2470.11,2020-7-27T07:39:17Z
2020-07-27T05:41:33Z,42.805,6.029,13.3004,4.60042,2470.063,2020-7-27T07:42:20Z
2020-07-27T05:44:36Z,42.805,6.029,13.3009,4.60043,2470.077,2020-7-27T07:45:24Z
2020-07-27T05:47:39Z,42.805,6.029,13.2998,4.60051,2470.087,2020-7-27T07:48:27Z
2020-07-27T05:50:42Z,42.805,6.029,13.3003,4.60054,2470.053,2020-7-27T07:51:30Z
2020-07-27T05:53:46Z,42.805,6.029,13.2995,4.60034,2470.053,2020-7-27T07:54:33Z
2020-07-27T05:56:49Z,42.805,6.029,13.3001,4.60057,2470.053,2020-7-27T07:57:37Z
2020-07-27T05:59:52Z,42.805,6.029,13.2991,4.60038,2470.087,2020-7-27T08:00:40Z
2020-07-27T06:02:55Z,42.805,6.029,13.3000,4.60036,2470.124,2020-7-27T08:03:43Z
2020-07-27T06:05:59Z,42.805,6.029,13.3012,4.60036,2470.063,2020-7-27T08:06:46Z
2020-07-27T06:09:02Z,42.805,6.029,13.2994,4.60049,2470.053,2020-7-27T08:09:50Z
2020-07-27T06:12:05Z,42.805,6.029,13.2991,4.60059,2470.1,2020-7-27T08:12:53Z
2020-07-27T06:15:08Z,42.805,6.029,13.3002,4.60050,2470.053,2020-7-27T08:15:56Z
2020-07-27T06:18:11Z,42.805,6.029,13.3006,4.60059,2470.04,2020-7-27T08:18:59Z
2020-07-27T06:21:15Z,42.805,6.029,13.3004,4.60028,2470.04,2020-7-27T08:22:02Z
2020-07-27T06:24:18Z,42.805,6.029,13.2995,4.60037,2470.063,2020-7-27T08:25:06Z
2020-07-27T06:27:21Z,42.805,6.029,13.2986,4.60040,2470.053,2020-7-27T08:28:09Z
2020-07-27T06:30:24Z,42.805,6.029,13.3004,4.60058,2470.04,2020-7-27T08:31:12Z
2020-07-27T06:33:28Z,42.805,6.029,13.2994,4.60040,2470.053,2020-7-27T08:34:15Z
2020-07-27T06:36:31Z,42.805,6.029,13.2995,4.60028,2470.03,2020-7-27T08:37:19Z
2020-07-27T06:39:34Z,42.805,6.029,13.2990,4.60032,2470.053,2020-7-27T08:40:22Z
2020-07-27T06:42:37Z,42.805,6.029,13.3000,4.60039,2470.077,2020-7-27T08:43:25Z
2020-07-27T06:45:40Z,42.805,6.029,13.3009,4.60024,2470.053,2020-7-27T08:46:28Z
2020-07-27T06:48:44Z,42.805,6.029,13.3019,4.60035,2470.03,2020-7-27T08:49:31Z
2020-07-27T06:51:47Z,42.805,6.029,13.3002,4.60033,2470.063,2020-7-27T08:52:35Z
2020-07-27T06:54:50Z,42.805,6.029,13.3010,4.60033,2470.04,2020-7-27T08:55:38Z
2020-07-27T06:57:54Z,42.805,6.029,13.2996,4.60052,2470.053,2020-7-27T08:58:41Z
2020-07-27T07:00:57Z,42.805,6.029,13.3005,4.60074,2470.053,2020-7-27T09:01:45Z
2020-07-27T07:04:00Z,42.805,6.029,13.3011,4.60052,2470.053,2020-7-27T09:04:48Z
2020-07-27T07:07:03Z,42.805,6.029,13.3021,4.60024,2470.091,2020-7-27T09:07:51Z
2020-07-27T07:10:07Z,42.805,6.029,13.3011,4.60025,2470.04,2020-7-27T09:10:54Z
2020-07-27T07:13:10Z,42.805,6.029,13.3004,4.60056,2470.017,2020-7-27T09:13:58Z
2020-07-27T07:16:13Z,42.805,6.029,13.3002,4.60074,2470.063,2020-7-27T09:17:01Z
2020-07-27T07:19:16Z,42.805,6.029,13.3014,4.60024,2470.053,2020-7-27T09:20:04Z
2020-07-27T07:22:20Z,42.805,6.029,13.3012,4.60004,2470.007,2020-7-27T09:23:07Z
2020-07-27T07:25:23Z,42.805,6.029,13.3032,4.60020,2470.04,2020-7-27T09:26:11Z
2020-07-27T07:28:26Z,42.805,6.029,13.3014,4.60009,2470.04,2020-7-27T09:29:14Z
2020-07-27T07:31:29Z,42.805,6.029,13.2996,4.59997,2470.017,2020-7-27T09:32:17Z
2020-07-27T07:34:33Z,42.805,6.029,13.3000,4.60024,2470.017,2020-7-27T09:35:20Z
2020-07-27T07:37:36Z,42.805,6.029,13.2990,4.59986,2470.04,2020-7-27T09:38:24Z
2020-07-27T07:40:39Z,42.805,6.029,13.2987,4.59983,2470.03,2020-7-27T09:41:27Z
2020-07-27T07:43:42Z,42.805,6.029,13.2986,4.59991,2470.04,2020-7-27T09:44:30Z
2020-07-27T07:46:46Z,42.805,6.029,13.2980,4.59986,2470.077,2020-7-27T09:47:33Z
2020-07-27T07:49:49Z,42.805,6.029,13.2998,4.59981,2470.04,2020-7-27T09:50:37Z
2020-07-27T07:52:52Z,42.805,6.029,13.2986,4.59981,2470.04,2020-7-27T09:53:40Z
2020-07-27T07:55:55Z,42.805,6.029,13.2977,4.59986,2470.017,2020-7-27T09:56:43Z
2020-07-27T07:58:59Z,42.805,6.029,13.2985,4.59983,2470.077,2020-7-27T09:59:47Z
2020-07-27T08:02:02Z,42.805,6.029,13.2979,4.59989,2470.04,2020-7-27T10:02:50Z
2020-07-27T08:05:05Z,42.805,6.029,13.2985,4.59984,2470.04,2020-7-27T10:05:53Z
2020-07-27T08:08:09Z,42.805,6.029,13.2985,4.59986,2470.077,2020-7-27T10:08:56Z
2020-07-27T08:11:12Z,42.805,6.029,13.2997,4.59985,2470.053,2020-7-27T10:11:59Z
2020-07-27T08:14:15Z,42.805,6.029,13.2990,4.59982,2470.063,2020-7-27T10:15:03Z
2020-07-27T08:17:18Z,42.805,6.029,13.2989,4.60003,2470.063,2020-7-27T10:18:06Z
2020-07-27T08:20:21Z,42.805,6.029,13.2983,4.59984,2470.04,2020-7-27T10:21:09Z
2020-07-27T08:23:25Z,42.805,6.029,13.2980,4.59983,2470.053,2020-7-27T10:24:12Z
2020-07-27T08:26:28Z,42.805,6.029,13.2981,4.59985,2470.063,2020-7-27T10:27:16Z
2020-07-27T08:29:31Z,42.805,6.029,13.2982,4.59981,2470.063,2020-7-27T10:30:19Z
2020-07-27T08:32:35Z,42.805,6.029,13.2981,4.59996,2470.077,2020-7-27T10:33:22Z
2020-07-27T08:35:38Z,42.805,6.029,13.2982,4.59986,2470.04,2020-7-27T10:36:26Z
2020-07-27T08:38:41Z,42.805,6.029,13.2979,4.59987,2470.063,2020-7-27T10:39:29Z
2020-07-27T08:41:44Z,42.805,6.029,13.2983,4.59984,2470.063,2020-7-27T10:42:32Z
2020-07-27T08:44:48Z,42.805,6.029,13.2984,4.59987,2470.053,2020-7-27T10:45:35Z
2020-07-27T08:47:51Z,42.805,6.029,13.2983,4.59994,2470.063,2020-7-27T10:48:38Z
2020-07-27T08:50:54Z,42.805,6.029,13.2981,4.59985,2470.1,2020-7-27T10:51:42Z
2020-07-27T08:53:57Z,42.805,6.029,13.2977,4.59986,2470.053,2020-7-27T10:54:45Z
2020-07-27T08:57:01Z,42.805,6.029,13.2981,4.59981,2470.04,2020-7-27T10:57:48Z
2020-07-27T09:00:04Z,42.805,6.029,13.2978,4.59981,2470.1,2020-7-27T11:00:51Z
2020-07-27T09:03:07Z,42.805,6.029,13.2983,4.59983,2470.087,2020-7-27T11:03:55Z
2020-07-27T09:06:11Z,42.805,6.029,13.2982,4.59982,2470.063,2020-7-27T11:06:58Z
2020-07-27T09:09:14Z,42.805,6.029,13.2980,4.59982,2470.077,2020-7-27T11:10:01Z
2020-07-27T09:12:17Z,42.805,6.029,13.2982,4.59983,2470.124,2020-7-27T11:13:05Z
2020-07-27T09:15:20Z,42.805,6.029,13.2978,4.59983,2470.087,2020-7-27T11:16:08Z
2020-07-27T09:18:23Z,42.805,6.029,13.2979,4.59981,2470.087,2020-7-27T11:19:11Z
2020-07-27T09:21:27Z,42.805,6.029,13.2977,4.59981,2470.087,2020-7-27T11:22:14Z
2020-07-27T09:24:30Z,42.805,6.029,13.2982,4.59980,2470.063,2020-7-27T11:25:18Z
2020-07-27T09:27:33Z,42.805,6.029,13.2974,4.59981,2470.133,2020-7-27T11:28:21Z
2020-07-27T09:30:36Z,42.805,6.029,13.2978,4.59981,2470.077,2020-7-27T11:31:24Z
2020-07-27T09:33:40Z,42.805,6.029,13.2984,4.59981,2470.1,2020-7-27T11:34:27Z
2020-07-27T09:36:43Z,42.805,6.029,13.2977,4.59985,2470.087,2020-7-27T11:37:31Z
2020-07-27T09:39:46Z,42.805,6.029,13.2979,4.59984,2470.11,2020-7-27T11:40:34Z
2020-07-27T09:42:49Z,42.805,6.029,13.2977,4.59987,2470.087,2020-7-27T11:43:37Z
2020-07-27T09:45:53Z,42.805,6.029,13.2976,4.59981,2470.087,2020-7-27T11:46:40Z
2020-07-27T09:48:56Z,42.805,6.029,13.2978,4.59983,2470.087,2020-7-27T11:49:44Z
2020-07-27T09:51:59Z,42.805,6.029,13.2981,4.59986,2470.11,2020-7-27T11:52:47Z
2020-07-27T09:55:02Z,42.805,6.029,13.2976,4.59983,2470.11,2020-7-27T11:55:50Z
2020-07-27T09:58:06Z,42.805,6.029,13.2974,4.59982,2470.1,2020-7-27T11:58:53Z
2020-07-27T10:01:09Z,42.805,6.029,13.2982,4.59981,2470.11,2020-7-27T12:01:57Z
2020-07-27T10:04:12Z,42.805,6.029,13.2980,4.59980,2470.087,2020-7-27T12:05:00Z
2020-07-27T10:07:15Z,42.805,6.029,13.2979,4.59981,2470.087,2020-7-27T12:08:03Z
2020-07-27T10:10:19Z,42.805,6.029,13.2976,4.59981,2470.133,2020-7-27T12:11:06Z
2020-07-27T10:13:22Z,42.805,6.029,13.2980,4.59981,2470.124,2020-7-27T12:14:10Z
2020-07-27T10:16:25Z,42.805,6.029,13.2978,4.59981,2470.11,2020-7-27T12:17:13Z
2020-07-27T10:19:28Z,42.805,6.029,13.2979,4.59983,2470.124,2020-7-27T12:20:16Z
2020-07-27T10:22:31Z,42.805,6.029,13.2980,4.59980,2470.11,2020-7-27T12:23:19Z
2020-07-27T10:25:35Z,42.805,6.029,13.2978,4.59983,2470.11,2020-7-27T12:26:22Z
2020-07-27T10:28:38Z,42.805,6.029,13.2982,4.59981,2470.11,2020-7-27T12:29:26Z
2020-07-27T10:31:41Z,42.805,6.029,13.2979,4.59982,2470.133,2020-7-27T12:32:29Z
2020-07-27T10:34:44Z,42.805,6.029,13.2977,4.59981,2470.11,2020-7-27T12:35:32Z
2020-07-27T10:37:48Z,42.805,6.029,13.2978,4.59984,2470.18,2020-7-27T12:38:35Z
2020-07-27T10:40:51Z,42.805,6.029,13.2974,4.59980,2470.11,2020-7-27T12:41:39Z
2020-07-27T10:43:54Z,42.805,6.029,13.2978,4.59981,2470.147,2020-7-27T12:44:42Z
2020-07-27T10:46:57Z,42.805,6.029,13.2983,4.59981,2470.11,2020-7-27T12:47:45Z
2020-07-27T10:50:01Z,42.805,6.029,13.2981,4.59981,2470.11,2020-7-27T12:50:48Z
2020-07-27T10:53:04Z,42.805,6.029,13.2974,4.59981,2470.11,2020-7-27T12:53:52Z
2020-07-27T10:56:07Z,42.805,6.029,13.2977,4.59985,2470.156,2020-7-27T12:56:55Z
2020-07-27T10:59:11Z,42.805,6.029,13.2977,4.59979,2470.133,2020-7-27T12:59:58Z
2020-07-27T11:02:14Z,42.805,6.029,13.2979,4.59981,2470.147,2020-7-27T13:03:02Z
2020-07-27T11:05:17Z,42.805,6.029,13.2981,4.59984,2470.171,2020-7-27T13:06:05Z
2020-07-27T11:08:20Z,42.805,6.029,13.2977,4.59979,2470.133,2020-7-27T13:09:08Z
2020-07-27T11:11:23Z,42.805,6.029,13.2979,4.59981,2470.147,2020-7-27T13:12:11Z
2020-07-27T11:14:27Z,42.805,6.029,13.2982,4.59982,2470.124,2020-7-27T13:15:14Z
2020-07-27T11:17:30Z,42.805,6.029,13.2977,4.59979,2470.171,2020-7-27T13:18:18Z
2020-07-27T11:20:33Z,42.805,6.029,13.2978,4.59980,2470.147,2020-7-27T13:21:21Z
2020-07-27T11:23:36Z,42.805,6.029,13.2978,4.59981,2470.147,2020-7-27T13:24:24Z
2020-07-27T11:26:40Z,42.805,6.029,13.2979,4.59981,2470.1,2020-7-27T13:27:27Z
2020-07-27T11:29:43Z,42.805,6.029,13.2979,4.59980,2470.156,2020-7-27T13:30:30Z
2020-07-27T11:32:46Z,42.805,6.029,13.2979,4.59978,2470.156,2020-7-27T13:33:34Z
2020-07-27T11:35:49Z,42.805,6.029,13.2979,4.59979,2470.143,2020-7-27T13:36:37Z
2020-07-27T11:38:52Z,42.805,6.029,13.2982,4.59983,2470.18,2020-7-27T13:39:40Z
2020-07-27T11:41:56Z,42.805,6.029,13.2981,4.59979,2470.156,2020-7-27T13:42:43Z
2020-07-27T11:44:59Z,42.805,6.029,13.2975,4.59981,2470.133,2020-7-27T13:45:47Z
2020-07-27T11:48:02Z,42.805,6.029,13.2976,4.59981,2470.171,2020-7-27T13:48:50Z
2020-07-27T11:51:05Z,42.805,6.029,13.2979,4.59980,2470.156,2020-7-27T13:51:53Z
2020-07-27T11:54:09Z,42.805,6.029,13.2976,4.59978,2470.156,2020-7-27T13:54:56Z
2020-07-27T11:57:12Z,42.805,6.029,13.2976,4.59979,2470.171,2020-7-27T13:58:00Z
2020-07-27T12:00:15Z,42.805,6.029,13.2976,4.59978,2470.156,2020-7-27T14:01:03Z
2020-07-27T12:03:18Z,42.805,6.029,13.2979,4.59978,2470.133,2020-7-27T14:04:06Z
2020-07-27T12:06:22Z,42.805,6.029,13.2974,4.59979,2470.156,2020-7-27T14:07:09Z
2020-07-27T12:09:25Z,42.805,6.029,13.2978,4.59978,2470.156,2020-7-27T14:10:13Z
2020-07-27T12:12:28Z,42.805,6.029,13.2977,4.59983,2470.18,2020-7-27T14:13:16Z
2020-07-27T12:15:31Z,42.805,6.029,13.2976,4.59978,2470.156,2020-7-27T14:16:19Z
2020-07-27T12:18:35Z,42.805,6.029,13.2976,4.59981,2470.156,2020-7-27T14:19:22Z
2020-07-27T12:21:38Z,42.805,6.029,13.2979,4.59978,2470.171,2020-7-27T14:22:26Z
2020-07-27T12:24:41Z,42.805,6.029,13.2977,4.59978,2470.147,2020-7-27T14:25:29Z
2020-07-27T12:27:44Z,42.805,6.029,13.2979,4.59978,2470.171,2020-7-27T14:28:32Z
2020-07-27T12:30:48Z,42.805,6.029,13.2978,4.59980,2470.147,2020-7-27T14:31:35Z
2020-07-27T12:33:51Z,42.805,6.029,13.2975,4.59978,2470.156,2020-7-27T14:34:39Z
2020-07-27T12:36:54Z,42.805,6.029,13.2982,4.59978,2470.171,2020-7-27T14:37:42Z
2020-07-27T12:39:57Z,42.805,6.029,13.2975,4.59980,2470.171,2020-7-27T14:40:45Z
2020-07-27T12:43:00Z,42.805,6.029,13.2973,4.59980,2470.156,2020-7-27T14:43:48Z
2020-07-27T12:46:04Z,42.805,6.029,13.2976,4.59977,2470.18,2020-7-27T14:46:51Z
2020-07-27T12:49:07Z,42.805,6.029,13.2974,4.59978,2470.133,2020-7-27T14:49:55Z
2020-07-27T12:52:10Z,42.805,6.029,13.2976,4.59977,2470.147,2020-7-27T14:52:58Z
2020-07-27T12:55:13Z,42.805,6.029,13.2974,4.59978,2470.133,2020-7-27T14:56:01Z
2020-07-27T12:58:17Z,42.805,6.029,13.2981,4.59979,2470.156,2020-7-27T14:59:04Z
2020-07-27T13:01:20Z,42.805,6.029,13.2976,4.59978,2470.194,2020-7-27T15:02:08Z
2020-07-27T13:04:23Z,42.805,6.029,13.2979,4.59978,2470.156,2020-7-27T15:05:11Z
2020-07-27T13:07:27Z,42.805,6.029,13.2980,4.59978,2470.171,2020-7-27T15:08:14Z
2020-07-27T13:10:30Z,42.805,6.029,13.2979,4.59978,2470.194,2020-7-27T15:11:18Z
2020-07-27T13:13:33Z,42.805,6.029,13.2977,4.59977,2470.11,2020-7-27T15:14:21Z
2020-07-27T13:16:36Z,42.805,6.029,13.2976,4.59979,2470.156,2020-7-27T15:17:24Z
2020-07-27T13:19:40Z,42.805,6.029,13.2976,4.59979,2470.171,2020-7-27T15:20:27Z
2020-07-27T13:22:43Z,42.805,6.029,13.2979,4.59978,2470.147,2020-7-27T15:23:31Z
2020-07-27T13:25:46Z,42.805,6.029,13.2977,4.59984,2470.133,2020-7-27T15:26:34Z
2020-07-27T13:28:49Z,42.805,6.029,13.2978,4.59979,2470.156,2020-7-27T15:29:37Z
2020-07-27T13:31:53Z,42.805,6.029,13.2980,4.59978,2470.133,2020-7-27T15:32:40Z
2020-07-27T13:34:56Z,42.805,6.029,13.2975,4.59980,2470.133,2020-7-27T15:35:44Z
2020-07-27T13:37:59Z,42.805,6.029,13.2976,4.59979,2470.124,2020-7-27T15:38:47Z
2020-07-27T13:41:03Z,42.805,6.029,13.2974,4.59979,2470.147,2020-7-27T15:41:50Z
2020-07-27T13:44:06Z,42.805,6.029,13.2976,4.59983,2470.156,2020-7-27T15:44:53Z
2020-07-27T13:47:09Z,42.805,6.029,13.2976,4.59978,2470.11,2020-7-27T15:47:57Z
2020-07-27T13:50:12Z,42.805,6.029,13.2975,4.59981,2470.133,2020-7-27T15:51:00Z
2020-07-27T13:53:15Z,42.805,6.029,13.2978,4.59978,2470.133,2020-7-27T15:54:03Z
2020-07-27T13:56:19Z,42.805,6.029,13.2978,4.59981,2470.147,2020-7-27T15:57:06Z
2020-07-27T13:59:22Z,42.805,6.029,13.2978,4.59980,2470.133,2020-7-27T16:00:10Z
2020-07-27T14:02:25Z,42.805,6.029,13.2979,4.59978,2470.133,2020-7-27T16:03:13Z
2020-07-27T14:05:28Z,42.805,6.029,13.2981,4.59980,2470.171,2020-7-27T16:06:16Z
2020-07-27T14:08:32Z,42.805,6.029,13.2979,4.59979,2470.11,2020-7-27T16:09:19Z
2020-07-27T14:11:35Z,42.805,6.029,13.2982,4.59978,2470.147,2020-7-27T16:12:22Z
2020-07-27T14:14:38Z,42.805,6.029,13.2976,4.59985,2470.1,2020-7-27T16:15:26Z
2020-07-27T14:17:41Z,42.805,6.029,13.2979,4.59982,2470.133,2020-7-27T16:18:29Z
2020-07-27T14:20:45Z,42.805,6.029,13.2979,4.59978,2470.156,2020-7-27T16:21:32Z
2020-07-27T14:23:48Z,42.805,6.029,13.2976,4.59979,2470.11,2020-7-27T16:24:35Z
2020-07-27T14:26:51Z,42.805,6.029,13.2979,4.59979,2470.171,2020-7-27T16:27:39Z
2020-07-27T14:29:54Z,42.805,6.029,13.2977,4.59982,2470.156,2020-7-27T16:30:42Z
2020-07-27T14:32:58Z,42.805,6.029,13.2979,4.59986,2470.147,2020-7-27T16:33:45Z
2020-07-27T14:36:01Z,42.805,6.029,13.2980,4.59979,2470.11,2020-7-27T16:36:49Z
2020-07-27T14:39:04Z,42.805,6.029,13.2980,4.59981,2470.133,2020-7-27T16:39:52Z
2020-07-27T14:42:07Z,42.805,6.029,13.2978,4.59981,2470.147,2020-7-27T16:42:55Z
2020-07-27T14:45:11Z,42.805,6.029,13.2980,4.59978,2470.147,2020-7-27T16:45:58Z
2020-07-27T14:48:14Z,42.805,6.029,13.2979,4.59978,2470.11,2020-7-27T16:49:02Z
2020-07-27T14:51:17Z,42.805,6.029,13.2978,4.59978,2470.11,2020-7-27T16:52:05Z
2020-07-27T14:54:20Z,42.805,6.029,13.2978,4.59979,2470.11,2020-7-27T16:55:08Z
2020-07-27T14:57:23Z,42.805,6.029,13.2979,4.59980,2470.133,2020-7-27T16:58:11Z
2020-07-27T15:00:27Z,42.805,6.029,13.2979,4.59980,2470.11,2020-7-27T17:01:14Z
2020-07-27T15:03:30Z,42.805,6.029,13.2980,4.59980,2470.124,2020-7-27T17:04:18Z
2020-07-27T15:06:33Z,42.805,6.029,13.2976,4.59979,2470.11,2020-7-27T17:07:21Z
2020-07-27T15:09:37Z,42.805,6.029,13.2979,4.59979,2470.11,2020-7-27T17:10:24Z
2020-07-27T15:12:40Z,42.805,6.029,13.2979,4.59980,2470.147,2020-7-27T17:13:28Z
2020-07-27T15:15:43Z,42.805,6.029,13.2979,4.59982,2470.11,2020-7-27T17:16:31Z